Terminal Aerodrome Forecast
Issued by NWS

Home | Current Version | Previous Version | Text Only | Print | Product List | Glossary On
Versions: 1 2 3 4 5 6 7 8 9 10 11 12 13 14 15 16 17 18 19 20 21 22 23
000
FTUS43 KGRB 261442 AAA
TAFAUW
TAF AMD
KAUW 261442Z 2615/2712 23010G18KT P6SM VCSH SCT025 BKN050
     FM262300 26010KT P6SM BKN040
     FM270100 27008KT P6SM SCT040 BKN090
     FM270400 28004KT P6SM SCT090=

USA.gov is the U.S. government's official web portal to all federal, state and local government web resources and services.